Flag for Sweden Weather past 2 weeks in Borås, Sweden

43 °F

Light rain. Low clouds.

Feels Like: 34 °F
Forecast: 38 / 43 °F
Wind: 21 mph from Southwest

Location: Gothenburg / Landvetter

Current Time: Nov 27, 2015 at 10:53:26 PM

Latest Report: Nov 27, 2015 at 9:50 PM

Visibility: 3 mi

Pressure: 29.53 "Hg

Humidity: 100%

Dew point: 43 °F

Location of BoråsLocation

Historic Weather in Borås — Graph


Borås temperature yesterday

Maximum temperature yesterday: 39 °F (at 11:50 PM)
Minimum temperature yesterday: 30 °F (at 4:50 PM)
Average temperature yesterday: 34 °F

Past Weeks' High & Low Weather Summary

High50 °F (Nov 13, 8:50 AM)100% (Nov 13, 12:50 AM)30.04 "Hg (Nov 13, 12:50 AM)
Low18 °F (Nov 22, 11:50 PM)74% (Nov 22, 1:50 PM)29.12 "Hg (Nov 19, 3:20 AM)
Average37 °F92%29.58 "Hg
* Reported Nov 12 9:20 PM — Nov 27 9:20 PM, Borås, Weather by CustomWeather, © 2015

Note: Actual official high and low records may vary slightly from our data, if they occured in-between our weather recording intervals... More about our weather records


Borås weather history for previous 24 hours

Time TempWeatherWind HumidityBarometerVisibility
9:20 PM
Fri, Nov 27
43 °FLight rain. Fog.22 mph93%29.53 "Hg2 mi
8:50 PM43 °FRain. Low clouds.23 mph93%29.56 "Hg2 mi
8:20 PM43 °FRain. Mostly cloudy.21 mph93%29.56 "Hg2 mi
7:50 PM43 °FRain. Low clouds.23 mph100%29.56 "Hg2 mi
7:20 PM43 °FRain. Low clouds.23 mph100%29.56 "Hg2 mi
6:50 PM43 °FRain. Low clouds.22 mph100%29.59 "Hg2 mi
6:20 PM43 °FRain. Low clouds.23 mph100%29.59 "Hg3 mi
5:50 PM43 °FDrizzle. Low clouds.24 mph100%29.59 "Hg2 mi
5:20 PM43 °FLight rain. Low clouds.21 mph100%29.59 "Hg2 mi
4:50 PM43 °FRain. Low clouds.22 mph100%29.62 "Hg2 mi
4:20 PM43 °FLight rain. Mostly cloudy.21 mph100%29.62 "Hg2 mi
3:50 PM43 °FLight rain. Low clouds.20 mph100%29.62 "Hg3 mi
3:20 PM43 °FLight rain. Mostly cloudy.22 mph100%29.62 "Hg2 mi
2:50 PM43 °FLight rain. Mostly cloudy.21 mph100%29.65 "Hg2 mi
2:20 PM45 °FLight rain. Partly sunny.23 mph93%29.65 "Hg2 mi
1:50 PM45 °FDrizzle. Mostly cloudy.23 mph93%29.65 "Hg2 mi
1:20 PM45 °FDrizzle. Mostly cloudy.22 mph93%29.65 "Hg2 mi
12:50 PM45 °FDrizzle. Mostly cloudy.22 mph93%29.68 "Hg2 mi
12:20 PM43 °FDrizzle. More clouds than sun.23 mph100%29.68 "Hg3 mi
11:50 AM43 °FRain. More clouds than sun.23 mph100%29.68 "Hg2 mi
11:20 AM43 °FDrizzle. Low clouds.22 mph100%29.71 "Hg2 mi
10:50 AM43 °FLight rain. Mostly cloudy.22 mph100%29.71 "Hg3 mi
10:20 AM43 °FRain. Mostly cloudy.22 mph100%29.71 "Hg2 mi
9:50 AM43 °FRain. Low clouds.20 mph100%29.74 "Hg2 mi
9:20 AM43 °FFog.21 mph100%29.74 "Hg2 mi
8:50 AM43 °FFog.18 mph100%29.74 "Hg4 mi
8:20 AM43 °FLow clouds.20 mph93%29.74 "HgN/A
7:50 AM43 °FLow clouds.18 mph100%29.74 "HgN/A
7:20 AM43 °FMostly cloudy.21 mph100%29.74 "HgN/A
6:50 AM43 °FFog.18 mph100%29.74 "Hg3 mi
6:20 AM43 °FLight rain. Mostly cloudy.21 mph100%29.77 "Hg2 mi
5:50 AM43 °FPassing clouds.20 mph100%29.77 "Hg2 mi
4:50 AM43 °FFog.18 mph93%29.77 "Hg2 mi
4:20 AM43 °FFog.15 mph93%29.77 "Hg3 mi
3:50 AM43 °FLow clouds.16 mph93%29.80 "HgN/A
3:20 AM43 °FPassing clouds.17 mph93%29.80 "HgN/A
2:50 AM41 °FPassing clouds.18 mph100%29.80 "HgN/A
2:20 AM41 °FPassing clouds.18 mph93%29.80 "HgN/A
1:50 AM41 °FPassing clouds.17 mph93%29.83 "HgN/A
1:20 AM41 °FPassing clouds.18 mph93%29.83 "HgN/A
12:50 AM39 °FPassing clouds.16 mph93%29.83 "HgN/A
12:20 AM39 °FPassing clouds.15 mph93%29.83 "HgN/A
11:50 PM
Thu, Nov 26
39 °FPassing clouds.15 mph93%29.83 "HgN/A
10:50 PM37 °FClear.12 mph93%29.86 "Hg10 mi
10:20 PM36 °FClear.12 mph93%29.86 "Hg10 mi
Weather by CustomWeather, © 2015

See weather overviewHow to use our weather pages